Presure
193 190 187 96 95 95 93 90 92 80 87 177 88 83 77 88 91 173 168 196 193 194 198 157 202 257 244 234 227 226 210 203 191 210 204 216 225 216 321 317 313 319 270
88 97 95 92 92 83 86 91 159 88 138 169 130 173 159 174 183 166 183 194 195 199 192 193 209 159 239 212 225 213 214 218 197 214 197 216 214 214 299 312 333 338 303
73 72 79 83 77 79 80 79 98 155 172 173 172 169 161 173 182 189 181 192 214 194 182 200 162 246 200 227 221 215 205 211 202 202 193 200 211 210 211 299 337 352 331
76 102 175 182 123 105 155 173 176 165 167 172 166 169 174 179 190 188 190 223 189 195 200 214 233 233 222 223 219 219 214 214 213 206 209 193 193 202 206 204 312 344 313
171 172 174 180 181 179 177 175 163 169 165 156 166 174 176 183 195 191 219 186 195 196 153 227 231 230 221 217 219 216 209 204 209 194 197 187 187 193 197 198 201 255 295
171 170 164 177 169 165 162 166 170 169 167 171 164 177 178 186 200 220 136 139 204 245 224 229 219 215 208 208 206 209 206 205 201 194 195 200 191 185 193 187 195 199 232
175 175 158 172 161 171 177 176 168 167 175 174 183 175 188 192 220 185 197 207 248 231 218 214 208 209 206 192 202 196 193 195 190 187 192 194 195 201 197 186 192 191 197
170 168 146 152 167 168 166 174 172 168 171 179 173 165 193 189 189 195 211 237 220 214 210 203 192 207 198 189 190 215 190 195 174 196 196 200 185 197 192 201 182 184 186
168 173 171 169 174 164 157 181 194 182 139 185 187 184 192 194 185 213 227 214 203 191 208 208 216 214 213 212 245 234 206 227 205 228 218 205 185 203 196 196 185 201 181
169 169 174 178 151 184 166 185 187 151 173 186 190 187 171 236 232 223 208 188 191 209 213 210 204 205 212 221 203 224 209 231 241 230 235 229 235 227 226 213 199 203 197
179 186 170 168 144 180 184 182 183 190 191 186 188 229 230 222 217 194 196 205 209 209 195 195 193 216 239 233 209 221 212 217 231 242 247 234 221 231 225 226 224 216 214
176 172 181 180 185 183 180 185 189 190 232 248 221 223 216 199 196 167 202 210 197 194 192 194 195 193 213 219 214 218 229 235 214 208 239 199 197 239 207 237 235 232 222
180 180 177 185 192 178 194 204 245 240 222 222 213 200 192 205 193 192 184 193 209 198 206 199 206 228 232 216 209 205 217 225 186 194 234 235 261 248 233 239 222 225 234
148 162 151 207 211 221 231 225 218 210 205 193 184 191 198 196 200 212 215 198 194 202 196 199 209 190 192 199 180 189 230 209 208 232 230 252 263 255 256 244 241 244 228
217 213 234 229 214 211 203 200 193 203 210 213 206 194 191 192 195 201 206 215 229 208 194 218 216 194 197 190 234 238 226 252 262 256 205 253 251 253 251 242 237 175 244
218 209 203 200 194 200 204 205 203 199 199 197 203 209 191 202 200 200 206 225 211 226 231 207 203 225 220 190 229 247 269 277 277 282 267 264 273 273 259 265 265 240 252
193 198 198 194 196 203 204 202 196 194 203 197 191 194 197 225 229 208 220 144 174 232 231 216 239 224 223 246 279 278 284 282 274 276 261 274 267 261 266 269 254 265 267
192 190 181 193 191 178 185 202 196 217 212 216 216 214 221 227 171 224 203 189 171 224 221 225 226 271 283 286 282 285 282 290 300 299 296 294 279 287 285 284 279 282 257
198 193 201 206 188 220 222 188 225 219 209 196 200 179 216 209 210 182 178 213 247 184 251 275 289 297 302 295 304 298 302 316 309 306 299 316 307 305 301 321 309 300 277
193 199 214 196 208 211 198 208 206 162 176 232 182 212 222 249 247 224 240 262 258 292 297 298 304 306 316 307 325 323 339 342 355 322 371 384 328 365 340 352 376 398 394
197 196 182 211 189 216 206 219 197 217 205 215 228 235 256 203 256 254 265 290 305 311 308 317 320 331 326 354 350 354 390 390 369 390 391 362 381 374 377 377 378 386 384
195 202 214 217 185 208 214 216 225 228 231 238 182 256 252 253 276 289 310 322 325 326 332 340 358 385 396 368 363 363 366 375 387 405 417 418 409 402 401 398 393 395 374
201 216 227 227 222 209 223 227 242 252 246 254 266 254 268 280 314 332 337 337 357 359 392 382 374 377 377 383 406 406 438 486 483 485 83 458 439 402 395 392 392 394 395
219 225 221 207 222 227 249 240 263 260 262 276 267 275 300 359 363 373 408 410 394 399 386 397 411 407 402 415 420 416 409 299 319 413 417 447 451 451 448 444 436 423 394
232 213 225 237 242 255 257 256 255 263 274 266 287 357 378 417 413 398 408 420 424 417 415 402 398 407 402 391 387 386 386 382 380 383 390 392 393 395 399 406 417 426 435
232 246 233 251 251 249 251 267 267 283 278 366 428 418 418 432 439 433 426 403 392 396 400 395 390 389 385 382 384 389 385 380 375 376 376 380 382 385 392 401 409 414 411
Wind_Speed
55 55 57 33 35 37 39 41 44 39 46 65 48 49 46 55 57 76 75 74 74 74 72 63 75 54 53 53 50 48 48 43 39 45 45 43 42 40 34 31 31 31 36
31 38 37 38 39 38 41 46 59 49 59 68 63 73 70 75 77 73 79 76 75 73 72 73 80 61 50 54 50 49 50 49 38 41 41 44 42 38 44 35 28 28 31
26 26 39 40 40 44 47 49 55 64 69 71 74 75 74 78 80 82 78 78 83 75 73 79 60 48 55 49 50 50 48 50 42 39 36 38 41 37 34 38 29 23 28
40 47 60 61 55 54 62 66 67 70 73 75 75 78 80 82 83 82 81 92 77 80 82 82 55 48 49 50 50 51 50 50 48 44 40 33 33 35 33 28 30 20 24
58 61 61 64 65 65 66 67 72 74 74 74 79 82 83 84 86 84 93 80 84 86 65 63 52 49 50 50 51 52 50 47 48 44 41 37 35 33 30 27 26 28 23
60 62 61 66 64 67 70 72 75 78 79 81 79 85 85 86 90 94 67 69 92 62 71 61 61 61 60 59 57 56 55 54 51 48 48 47 41 39 33 33 27 25 28
64 65 64 68 69 73 76 78 80 81 83 84 88 81 90 90 94 87 94 92 68 76 72 70 69 67 66 63 63 60 58 57 55 53 54 53 50 47 42 36 33 31 28
65 66 66 72 75 77 79 82 83 83 84 87 84 77 91 91 90 96 98 69 82 81 79 77 73 76 72 69 68 75 66 67 61 62 59 59 52 56 47 48 43 39 37
69 74 75 77 79 80 78 89 94 90 70 93 93 91 95 97 87 81 83 86 85 84 90 90 89 90 91 89 65 75 75 80 70 74 72 68 60 63 58 56 49 50 47
75 78 79 84 73 90 82 91 92 73 87 95 96 95 85 89 83 88 87 88 88 92 91 90 93 95 94 86 93 86 88 78 75 80 76 76 74 73 74 70 62 62 54
83 86 79 85 71 91 93 92 94 97 97 97 99 91 91 91 91 91 91 93 95 95 90 92 93 99 82 83 100 86 98 92 87 79 78 82 83 79 75 76 75 71 71
85 86 90 91 94 95 93 98 100 101 94 81 95 92 92 93 94 86 95 97 94 95 95 97 100 97 100 100 102 100 96 94 103 85 89 76 70 83 76 82 80 79 76
88 91 90 95 98 91 102 102 88 89 93 91 93 94 96 96 98 98 98 99 102 101 106 106 109 107 105 107 112 99 111 99 76 76 88 86 88 91 93 89 86 83 82
73 81 77 95 96 93 91 92 92 93 94 96 98 98 97 101 104 108 109 107 107 108 107 108 111 100 105 87 77 88 113 98 106 98 92 92 92 95 93 91 93 95 89
88 88 81 84 86 88 92 95 98 99 100 101 100 100 103 105 108 111 112 117 117 114 114 117 118 95 109 84 120 121 119 114 101 102 107 97 95 95 101 101 96 88 98
77 80 83 86 89 91 93 95 97 98 100 103 104 107 107 108 110 113 115 119 119 121 121 106 121 122 122 102 126 118 114 109 106 102 99 100 103 99 99 98 99 108 103
83 82 83 85 86 88 89 93 95 99 101 102 107 109 112 117 119 111 118 79 80 124 127 111 131 129 128 129 123 119 117 115 111 111 108 109 109 108 106 103 111 104 106
81 85 92 91 90 98 100 95 100 105 105 110 111 112 117 122 100 122 121 100 79 129 132 125 130 134 132 129 127 126 121 125 123 118 115 113 112 115 116 113 112 109 117
81 84 87 90 95 100 104 110 113 114 109 109 109 114 121 112 117 116 102 122 138 96 137 138 136 132 129 129 129 127 125 125 115 114 112 115 113 116 116 115 117 117 119
87 92 99 93 102 105 101 110 106 94 115 121 126 117 129 134 133 121 134 138 138 142 136 133 133 131 132 125 132 129 131 124 120 114 114 107 109 107 105 107 103 94 93
92 97 108 111 110 113 106 117 110 121 118 117 126 129 136 107 137 137 140 144 140 137 134 137 135 137 133 131 130 124 110 107 111 102 98 103 96 97 94 93 92 89 90
97 105 117 120 109 116 120 124 125 127 130 132 119 138 136 138 144 144 139 137 138 138 138 137 130 115 105 113 111 110 108 104 98 86 79 77 79 81 81 82 83 84 89
108 116 117 120 123 116 129 131 133 135 135 137 139 128 139 143 137 134 135 135 139 134 116 115 111 105 99 93 81 81 69 61 64 63 17 65 67 72 73 75 75 76 78
113 117 111 106 123 128 131 131 138 140 139 141 137 141 143 134 135 134 112 105 109 102 103 91 79 74 71 63 58 58 60 50 52 58 54 47 47 48 51 55 61 67 73
124 109 122 129 131 135 136 137 141 143 142 137 141 131 133 111 106 107 95 84 75 75 71 71 69 62 58 60 61 61 60 61 62 63 59 56 56 55 54 53 52 53 56
124 131 128 134 132 131 133 140 142 145 144 130 109 109 104 90 79 74 68 71 71 67 62 62 63 61 62 61 60 58 60 61 63 62 60 58 57 58 58 58 57 57 55
Wind_Direction
263 266 270 277 276 277 275 274 275 282 283 288 283 281 287 282 284 296 300 300 301 302 307 298 315 314 313 311 308 309 308 309 307 314 315 321 326 324 321 300 284 269 248
268 272 271 271 271 277 277 276 284 281 286 290 287 291 291 293 295 299 299 301 303 307 306 309 316 297 309 306 309 308 310 312 305 316 313 324 324 326 343 332 303 274 247
283 287 285 280 287 284 282 282 281 286 288 288 288 290 294 295 297 297 300 303 309 307 304 313 296 311 303 309 308 307 308 309 307 308 304 314 324 327 329 338 315 281 243
282 276 272 277 278 279 281 283 285 283 284 287 289 292 294 295 297 299 302 311 305 308 313 313 312 312 309 308 306 305 305 307 307 304 306 299 305 318 326 323 327 285 254
272 275 277 277 279 282 284 285 280 284 286 290 290 292 293 296 299 301 308 304 308 311 291 308 308 307 304 303 304 303 300 299 303 294 295 289 289 296 303 309 314 317 276
273 274 275 280 281 280 280 282 284 284 285 288 291 292 295 298 302 305 286 290 309 305 308 308 310 309 307 305 302 302 300 299 297 292 293 295 286 283 289 283 293 302 302
274 277 272 281 276 282 284 284 282 283 287 288 291 295 297 300 303 302 306 306 307 310 310 309 307 305 303 300 298 294 291 291 288 287 291 292 292 292 287 275 281 280 285
276 275 279 274 277 278 278 284 284 285 288 291 294 291 298 299 303 304 307 303 308 309 308 304 300 303 298 293 292 299 290 292 282 289 287 289 280 290 280 286 270 267 267
273 278 275 276 282 276 282 284 287 288 286 292 295 297 300 303 298 300 305 307 307 304 308 308 305 306 305 305 292 292 293 294 285 290 290 285 277 285 280 279 266 280 263
273 275 280 280 283 281 281 286 287 285 291 293 296 299 292 300 300 302 303 300 300 304 303 302 304 304 301 295 300 292 297 288 287 287 282 284 279 281 282 281 277 279 270
278 278 280 277 278 283 286 287 288 291 293 295 298 298 299 301 300 299 300 302 302 302 299 300 298 298 294 291 295 288 293 295 288 280 275 277 286 278 272 274 275 275 276
274 276 281 282 283 284 287 290 291 294 292 290 298 298 299 298 297 290 300 299 297 296 295 296 296 293 294 291 292 289 290 290 289 294 280 286 277 266 286 268 267 266 266
279 279 281 283 286 286 290 293 290 292 297 296 297 296 294 298 295 294 292 293 294 294 294 294 294 293 292 293 291 294 292 287 282 291 280 283 269 265 270 264 272 268 260
277 280 278 288 290 291 292 294 296 296 295 291 290 292 294 294 294 294 294 292 292 292 292 293 290 293 294 295 299 302 286 289 284 289 286 274 270 264 263 266 260 258 263
284 287 286 288 292 292 293 293 293 293 293 294 294 293 293 293 292 292 293 292 293 290 289 289 288 294 292 294 289 289 286 287 287 280 289 274 272 264 261 264 258 260 255
284 286 287 289 290 292 292 293 294 292 291 290 290 290 289 290 288 287 289 292 289 290 291 289 287 289 286 301 288 289 287 286 285 281 272 272 273 270 260 260 256 263 253
284 288 289 289 289 290 290 289 288 288 289 288 287 287 288 294 293 293 290 287 291 291 288 291 288 287 291 290 292 289 287 284 279 278 271 275 271 265 262 259 266 258 251
281 281 280 284 285 285 284 288 287 295 291 291 291 292 295 294 297 292 286 291 298 289 290 296 292 295 294 291 290 288 285 285 282 280 277 274 268 270 267 263 260 256 253
288 286 291 292 285 295 296 284 296 296 292 283 286 294 292 288 288 295 300 292 293 302 294 295 294 293 290 288 287 285 283 285 279 276 273 277 270 268 266 270 265 262 255
290 292 294 292 297 295 289 296 291 294 294 293 286 292 293 294 293 295 291 295 293 297 295 294 292 291 290 287 290 287 287 286 285 276 286 285 275 281 274 273 276 274 269
293 291 288 297 291 296 296 293 294 293 294 292 293 296 301 302 299 297 297 298 297 295 295 294 293 292 292 292 291 289 288 287 286 286 285 284 281 280 278 276 274 272 269
296 296 296 295 294 298 297 295 294 294 295 297 291 301 300 300 300 299 297 295 294 293 292 291 292 292 292 291 290 288 287 287 286 285 282 278 275 274 272 270 269 267 264
296 296 293 292 294 299 297 297 297 300 301 302 302 299 302 301 298 295 294 293 292 293 295 294 293 291 290 289 288 287 286 284 284 283 288 277 273 273 272 270 268 267 266
297 297 300 300 297 298 301 302 303 303 303 303 304 304 301 295 293 293 296 296 296 294 294 293 294 292 291 291 289 289 290 290 290 288 286 287 285 282 278 274 270 267 266
298 302 301 301 302 303 305 305 304 304 304 304 302 298 294 298 297 297 297 297 297 296 295 294 293 294 293 292 291 291 290 289 289 288 288 287 285 282 279 277 274 272 271
300 301 304 304 305 305 305 304 303 303 303 299 299 298 297 299 300 299 297 296 296 296 296 295 294 294 293 292 291 289 286 286 287 287 288 286 284 284 283 282 279 277 273